Weather History for KEZM - November, 2012

Change the Weather History Date:

Wednesday, November 21, 2012

  Actual Average Record
Temperature  
Mean Temperature 55 °F -  
Max Temperature 72 °F 66 °F 68 °F (2013)
Min Temperature 38 °F 42 °F 31 °F (2014)
Degree Days  
Heating Degree Days 10    
Growing Degree Days 5 (Base 50)    
Moisture  
Dew Point 41 °F    
Average Humidity 71    
Maximum Humidity 97    
Minimum Humidity 24    
Precipitation  
Precipitation 0.00 in - - ()
Sea Level Pressure  
Sea Level Pressure 30.14 in    
Wind  
Wind Speed 1 mph ()    
Max Wind Speed 10 mph    
Max Gust Speed 18 mph    
Visibility 7.0 miles    
Events Fog    
Averages and records for this station are not official NWS values.
T = Trace of Precipitation, MM = Missing Value Source: Averaged Metar Reports

Daily Weather History Graph

Daily Weather History Graph

Search for Another Location

Airport or City:

Trip Planner

Search our weather history database for the weather conditions in past years. The results will help you decide how hot, cold, wet, or windy it might be!

Date:

Astronomy

Nov. 21, 2012 Rise Set
Actual Time 7:07 AM EST 5:29 PM EST
Civil Twilight 6:41 AM EST 5:55 PM EST
Nautical Twilight 6:11 AM EST 6:25 PM EST
Astronomical Twilight 5:41 AM EST 6:54 PM EST
Moon 1:26 PM EST (11/21) 12:46 AM EST (11/21)
Length of Visible Light 11h 14m
Length of Day
10h 22m
First Quarter, 61% of the Moon is Illuminated
Nov 21
First Quarter
Nov 28
Full
Dec 6
Last Quarter
Dec 13
New
Dec 20
First Quarter

Hourly Weather History & Observations

Time (EST) Temp. Windchill Dew Point Humidity Pressure Visibility Wind Dir Wind Speed Gust Speed Precip Events Conditions
12:15 AM 44.8 °F - 43.5 °F 95% 30.11 in 5.0 mi Calm Calm - N/A   Clear
12:35 AM 45.0 °F - 43.7 °F 95% 30.11 in 0.8 mi Calm Calm - N/A   Mist
12:55 AM 45.3 °F - 44.1 °F 95% 30.11 in 4.0 mi Calm Calm - N/A   Clear
1:15 AM 44.2 °F - 43.2 °F 96% 30.10 in 0.5 mi Calm Calm - N/A Fog Fog
1:35 AM 43.5 °F - 42.3 °F 95% 30.10 in 0.8 mi Calm Calm - N/A   Mist
1:55 AM 42.8 °F - 41.5 °F 95% 30.10 in 2.0 mi Calm Calm - N/A   Clear
2:15 AM 42.8 °F - 41.7 °F 96% 30.10 in 2.5 mi Calm Calm - N/A   Clear
2:35 AM 42.3 °F - 41.0 °F 95% 30.10 in 5.0 mi Calm Calm - N/A   Clear
2:55 AM 44.1 °F - 43.0 °F 96% 30.10 in 1.2 mi Calm Calm - N/A   Mist
3:15 AM 41.5 °F - 40.5 °F 96% 30.10 in 2.5 mi Calm Calm - N/A   Clear
3:35 AM 41.2 °F - 40.1 °F 96% 30.10 in 7.0 mi Calm Calm - N/A   Clear
3:55 AM 41.4 °F - 40.3 °F 96% 30.10 in 4.0 mi Calm Calm - N/A   Mostly Cloudy
4:15 AM 40.8 °F - 39.6 °F 95% 30.09 in 1.5 mi Calm Calm - N/A   Mostly Cloudy
4:35 AM 40.1 °F - 38.8 °F 95% 30.10 in 2.5 mi Calm Calm - N/A   Scattered Clouds
4:55 AM 39.2 °F - 38.3 °F 97% 30.10 in 3.0 mi Calm Calm - N/A   Mostly Cloudy
5:15 AM 39.2 °F - 38.3 °F 97% 30.11 in 0.5 mi Calm Calm - N/A Fog Fog
5:35 AM 40.1 °F - 39.2 °F 97% 30.11 in 0.5 mi Calm Calm - N/A Fog Fog
5:55 AM 40.5 °F - 39.6 °F 97% 30.11 in 0.8 mi Calm Calm - N/A   Overcast
6:15 AM 38.8 °F - 37.9 °F 97% 30.11 in 0.5 mi Calm Calm - N/A Fog Fog
6:35 AM 38.8 °F - 37.9 °F 97% 30.12 in 0.8 mi Calm Calm - N/A   Overcast
7:15 AM 40.3 °F - 39.4 °F 97% 30.13 in 0.2 mi Calm Calm - N/A Fog Fog
7:35 AM 39.6 °F - 38.7 °F 97% 30.14 in 0.2 mi Calm Calm - N/A Fog Fog
7:55 AM 39.9 °F - 39.0 °F 97% 30.14 in 0.2 mi Calm Calm - N/A Fog Fog
8:15 AM 42.3 °F - 41.4 °F 97% 30.14 in 1.0 mi Calm Calm - N/A   Overcast
8:35 AM 44.2 °F 42.7 °F 43.3 °F 97% 30.16 in 3.0 mi North 3.5 mph - N/A   Scattered Clouds
8:55 AM 47.3 °F - 46.4 °F 97% 30.16 in 5.0 mi Calm Calm - N/A   Clear
9:15 AM 50.2 °F - 48.2 °F 93% 30.17 in 7.0 mi Calm Calm - N/A   Clear
9:35 AM 53.1 °F - 50.0 °F 89% 30.17 in 7.0 mi Calm Calm - N/A   Clear
9:55 AM 57.2 °F - 51.3 °F 81% 30.17 in 10.0 mi Calm Calm - N/A   Clear
10:15 AM 60.8 °F - 49.5 °F 66% 30.18 in 10.0 mi ESE 3.5 mph - N/A   Clear
10:35 AM 63.0 °F - 48.2 °F 59% 30.18 in 10.0 mi ESE 4.6 mph - N/A   Clear
10:55 AM 64.2 °F - 48.0 °F 56% 30.17 in 10.0 mi ENE 3.5 mph - N/A   Clear
11:15 AM 66.6 °F - 46.8 °F 49% 30.17 in 10.0 mi NE 6.9 mph - N/A   Clear
11:35 AM 67.5 °F - 44.4 °F 43% 30.16 in 10.0 mi NNE 4.6 mph - N/A   Clear
11:55 AM 68.9 °F - 42.6 °F 39% 30.16 in 10.0 mi NNE 8.1 mph - N/A   Clear
12:15 PM 70.0 °F - 40.5 °F 34% 30.15 in 10.0 mi NE 8.1 mph - N/A   Clear
12:35 PM 70.5 °F - 39.4 °F 32% 30.14 in 10.0 mi NNE 5.8 mph - N/A   Clear
12:55 PM 70.9 °F - 38.5 °F 31% 30.14 in 10.0 mi ENE 6.9 mph - N/A   Clear
1:15 PM 71.1 °F - 37.6 °F 29% 30.13 in 10.0 mi ENE 8.1 mph - N/A   Clear
1:35 PM 72.3 °F - 35.6 °F 26% 30.12 in 10.0 mi North 5.8 mph - N/A   Clear
1:55 PM 72.0 °F - 33.4 °F 24% 30.12 in 10.0 mi NNE 10.4 mph 18.4 mph N/A   Clear
2:15 PM 72.0 °F - 33.8 °F 25% 30.12 in 10.0 mi NE 8.1 mph - N/A   Clear
2:35 PM 72.0 °F - 34.0 °F 25% 30.12 in 10.0 mi NNE 9.2 mph - N/A   Clear
2:55 PM 71.8 °F - 34.7 °F 26% 30.11 in 10.0 mi North 9.2 mph - N/A   Clear
3:15 PM 72.0 °F - 34.9 °F 26% 30.11 in 10.0 mi NE 6.9 mph - N/A   Clear
3:35 PM 71.8 °F - 34.7 °F 26% 30.11 in 10.0 mi NNE 9.2 mph - N/A   Clear
3:55 PM 71.2 °F - 33.8 °F 25% 30.11 in 10.0 mi North 4.6 mph - N/A   Clear
4:15 PM 70.9 °F - 34.7 °F 26% 30.12 in 10.0 mi NNE 4.6 mph - N/A   Clear
4:35 PM 70.2 °F - 35.6 °F 28% 30.12 in 10.0 mi NNE 5.8 mph - N/A   Clear
4:55 PM 69.3 °F - 35.6 °F 29% 30.12 in 10.0 mi NNE 3.5 mph - N/A   Clear
5:15 PM 67.6 °F - 35.6 °F 31% 30.12 in 10.0 mi Calm Calm - N/A   Clear
5:35 PM 63.7 °F - 39.7 °F 41% 30.12 in 10.0 mi Calm Calm - N/A   Clear
5:55 PM 60.1 °F - 40.5 °F 48% 30.13 in 10.0 mi Calm Calm - N/A   Clear
6:15 PM 59.9 °F - 38.5 °F 45% 30.13 in 10.0 mi Calm Calm - N/A   Clear
6:35 PM 55.0 °F - 42.3 °F 62% 30.14 in 10.0 mi Calm Calm - N/A   Clear
6:55 PM 54.3 °F - 42.3 °F 64% 30.15 in 10.0 mi Calm Calm - N/A   Clear
7:15 PM 52.2 °F - 42.6 °F 70% 30.15 in 10.0 mi Calm Calm - N/A   Clear
7:35 PM 50.2 °F - 43.2 °F 77% 30.15 in 10.0 mi Calm Calm - N/A   Clear
7:55 PM 50.2 °F - 43.2 °F 77% 30.16 in 10.0 mi Calm Calm - N/A   Clear
8:15 PM 48.2 °F - 43.0 °F 82% 30.16 in 10.0 mi Calm Calm - N/A   Clear
8:35 PM 48.4 °F - 42.6 °F 80% 30.16 in 10.0 mi Calm Calm - N/A   Clear
8:55 PM 48.4 °F - 42.6 °F 80% 30.16 in 10.0 mi Calm Calm - N/A   Clear
9:15 PM 45.7 °F - 41.5 °F 85% 30.16 in 10.0 mi Calm Calm - N/A   Clear
9:35 PM 45.5 °F - 42.1 °F 88% 30.17 in 10.0 mi Calm Calm - N/A   Clear
9:55 PM 44.4 °F - 41.2 °F 88% 30.17 in 10.0 mi Calm Calm - N/A   Clear
10:15 PM 43.3 °F - 41.0 °F 91% 30.17 in 10.0 mi Calm Calm - N/A   Clear
10:35 PM 43.9 °F - 40.1 °F 87% 30.17 in 10.0 mi Calm Calm - N/A   Clear
10:55 PM 43.2 °F - 40.5 °F 90% 30.17 in 10.0 mi Calm Calm - N/A   Clear
11:15 PM 42.6 °F - 40.1 °F 91% 30.18 in 10.0 mi Calm Calm - N/A   Clear
11:35 PM 42.1 °F - 39.7 °F 91% 30.18 in 10.0 mi Calm Calm - N/A   Clear
11:55 PM 41.4 °F - 39.2 °F 92% 30.18 in 10.0 mi Calm Calm - N/A   Clear